Main page
METAR-TAF:

METAR-TAF

Airports :

Teruel, Spain

Teruel Airport

latitude: 40-24-43N, longitude: 01-13-03W, elevation: 1030 m

Current weather observation

The report was made 20 minutes ago, at 03:30 UTC
Wind 3 kt from the West
Temperature 5°C
Humidity 70%
Pressure 1024 hPa
Visibility 10 km or more

METAR: LETL 200330Z AUTO 26003KT 9999 NCD 05/00 Q1024

Time: 05:50 (03:50 UTC)


TAF: missing

Weather observations and forecasts of more than 4000 airports (METAR and TAF reports).

The available stations are represented by yellow and red dots on the map.

Hover mouse over dot to see the name of the station.

Then click to see weather observations and forecasts.

To change the map : click on the green buttons with a black cross to zoom in, on the green button with a dash to zoom out, or on the green arrows for adjacent maps.


METAR-TAF: